Miscellaneous Local Product
Issued by NWS Hastings, NE

Home | Current Version | Previous Version | Graphics & Text | Print | Product List | Glossary On
Versions: 1 2 3 4 5 6 7 8 9 10 11 12 13 14 15 16 17 18 19 20 21 22 23 24 25 26 27 28 29 30 31 32 33 34 35 36 37 38 39 40 41 42 43 44 45 46 47 48 49 50
063
AXUS43 KGID 260702
MISGRI

GID CWA HOURLY WEATHER ROUNDUP
NATIONAL WEATHER SERVICE HASTINGS NE
200 AM CDT FRI MAY 26 2017

NOTE: "FAIR" INDICATES FEW OR NO CLOUDS BELOW 12,000 FEET WITH NO
SIGNIFICANT WEATHER AND/OR OBSTRUCTIONS TO VISIBILITY.

...SOUTH CENTRAL NEBRASKA...

CITY           SKY/WX    TMP DP  RH WIND       PRES   REMARKS
GRAND ISLAND   CLOUDY    62  59  90 NW7       29.67R
HASTINGS       LGT RAIN  64  59  83 NW9       29.66R
KEARNEY        CLOUDY    63  54  72 NW9       29.68R
ORD            CLOUDY    60  53  77 W5        29.69R
YORK           CLOUDY    66  57  72 S5        29.64R
AURORA         LGT RAIN  63  57  82 CALM      29.64S
LEXINGTON      CLOUDY    61  56  84 E5        29.67F
HOLDREGE       MOCLDY    61  55  82 NW5       29.67F
HEBRON         CLOUDY    65  61  88 CALM      29.61R

...NEBRASKA PANHANDLE...

CITY           SKY/WX    TMP DP  RH WIND       PRES   REMARKS
CHADRON        CLOUDY    44  41  89 W8        29.86R
ALLIANCE       MOCLDY    47  42  83 N12       29.84R
SCOTTSBLUFF    CLEAR     50  38  63 W8        29.87R
SIDNEY         CLOUDY    50  48  93 NW12      29.84R

...WESTERN AND NORTH CENTRAL NEBRASKA...

CITY           SKY/WX    TMP DP  RH WIND       PRES   REMARKS
VALENTINE      CLOUDY    57  40  52 N16       29.78R
AINSWORTH      CLOUDY    57  44  61 N16G22    29.75S
ONEILL         CLOUDY    58  52  79 W3        29.71R
BROKEN BOW     MOCLDY    62  53  72 N9        29.69F
IMPERIAL       CLOUDY    56  52  86 N12       29.75R
NORTH PLATTE   CLOUDY    56  54  93 CALM      29.71S
MCCOOK         MOCLDY    58  53  84 E6        29.68F

...EASTERN NEBRASKA...

CITY           SKY/WX    TMP DP  RH WIND       PRES   REMARKS
NORFOLK        CLOUDY    56  52  86 SW3       29.65F
SO SIOUX CITY  CLOUDY    60  56  86 E7        29.65S
TEKAMAH        CLOUDY    63  56  78 SE8       29.65S
ALBION         CLOUDY    55  52  87 NW3       29.67S
OMAHA EPPLEY   CLOUDY    66  55  67 SE7       29.65F
OFFUTT AFB     CLOUDY    65  56  70 SE6       29.64F
MILLARD        CLOUDY    67  58  72 SE5       29.65S
LINCOLN        CLOUDY    66  57  72 SE6       29.63F
NEBRASKA CITY  CLOUDY    65  52  62 SE6       29.65F
BEATRICE       LGT RAIN  65  60  86 E8        29.58F
FALLS CITY     CLOUDY    64  57  78 E3        29.64F

...NORTHERN KANSAS...

CITY           SKY/WX    TMP DP  RH WIND       PRES   REMARKS
GOODLAND       MOCLDY    55  52  89 SW8       29.82R
HILL CITY      PTCLDY    60  56  86 NW13      29.70R
NORTON         SUNNY     55  50  82 W8        29.68F
PHILLIPSBURG   CLEAR     61  57  88 NW9       29.67R
SMITH CENTER   CLEAR     61  55  82 N10       29.64R
HAYS           PTCLDY    59  56  89 N3        29.63R
RUSSELL        MOCLDY    61  59  93 NE5       29.59R
CONCORDIA      CLOUDY    63  62  97 E5        29.58R
SALINA         CLOUDY    68  62  81 E10       29.56F
TOPEKA         CLOUDY    64  62  93 CALM      29.66R



USA.gov is the U.S. government's official web portal to all federal, state and local government web resources and services.